Shungnak AP, Shungnak, AK, AK

8:19 PM AKST on November 16, 2019 (GMT -0900)
Shungnak AP, Shungnak, AK

Weather History for PAGH - September, 2019

Change the Weather History Date:

Saturday, September 28, 2019

  Actual Average (WUND) Record (WUND)
Temperature  
Mean Temperature 40 °F -  
Max Temperature 43 °F - - (-1)
Min Temperature 37 °F - - (-1)
Degree Days  
Heating Degree Days 25    
Moisture  
Dew Point 33 °F    
Average Humidity 76    
Maximum Humidity 89    
Minimum Humidity 65    
Precipitation  
Precipitation 0.00 in - - ()
Sea Level Pressure  
Sea Level Pressure 30.11 in    
Wind  
Wind Speed 20 mph (ESE)    
Max Wind Speed 25 mph    
Max Gust Speed 32 mph    
Visibility 10 miles    
Events      
Averages and records for this station are not official NWS values.
T = Trace of Precipitation, MM = Missing Value Source: NWS Daily Summary

Daily Weather History Graph

Daily Weather History Graph

Search for Another Location

Airport or City:

Astronomy

Sep. 28, 2019 Rise Set
Actual Time 8:30 AM AKDT 8:06 PM AKDT
Civil Twilight 7:37 AM AKDT 8:58 PM AKDT
Nautical Twilight 6:33 AM AKDT 10:02 PM AKDT
Astronomical Twilight 5:20 AM AKDT 11:14 PM AKDT
Moon 7:53 AM AKDT (9/28) 8:47 PM AKDT (9/28)
Length of Visible Light 13h 21m
Length of Day
11h 35m
New Moon, 0% of the Moon is Illuminated
Sep 28
New Moon
Oct 5
First Quarter
Oct 13
Full
Oct 21
Last Quarter
Oct 27
New

Hourly Weather History & Observations

Time (AKDT) Temp. Windchill Dew Point Humidity Pressure Visibility Wind Dir Wind Speed Gust Speed Precip Events Conditions
12:56 AM 37.0 °F 26.4 °F 33.1 °F 86% 30.23 in 10.0 mi ESE 20.7 mph 26.5 mph N/A   Overcast
1:56 AM 37.9 °F 29.6 °F 33.1 °F 83% 30.23 in 10.0 mi ESE 13.8 mph 20.7 mph N/A   Overcast
2:56 AM 37.9 °F 28.5 °F 33.1 °F 83% 30.23 in 10.0 mi East 17.3 mph 23.0 mph N/A   Overcast
3:56 AM 37.9 °F 27.6 °F 33.1 °F 83% 30.23 in 10.0 mi East 20.7 mph 24.2 mph N/A   Overcast
4:56 AM 37.0 °F 26.2 °F 34.0 °F 89% 30.22 in 10.0 mi ESE 21.9 mph 26.5 mph N/A   Overcast
5:56 AM 37.0 °F 27.7 °F 34.0 °F 89% 30.21 in 10.0 mi East 16.1 mph 23.0 mph N/A   Overcast
6:56 AM 37.9 °F 28.5 °F 33.1 °F 83% 30.19 in 10.0 mi ESE 17.3 mph 26.5 mph N/A   Overcast
7:56 AM 37.9 °F 27.9 °F 33.1 °F 83% 30.18 in 10.0 mi ESE 19.6 mph 26.5 mph N/A   Overcast
8:56 AM 37.9 °F 27.9 °F 33.1 °F 83% 30.17 in 10.0 mi East 19.6 mph 31.1 mph N/A   Mostly Cloudy
9:56 AM 37.9 °F 27.3 °F 33.1 °F 83% 30.17 in 10.0 mi ESE 21.9 mph 29.9 mph N/A   Overcast
10:56 AM 39.9 °F 30.5 °F 33.1 °F 77% 30.17 in 10.0 mi ESE 19.6 mph 29.9 mph N/A   Overcast
11:56 AM 41.0 °F 32.2 °F 33.1 °F 73% 30.15 in 10.0 mi ESE 18.4 mph 27.6 mph N/A   Overcast
12:56 PM 43.0 °F 33.8 °F 33.1 °F 68% 30.15 in 10.0 mi East 23.0 mph 29.9 mph N/A   Scattered Clouds
1:56 PM 42.1 °F 32.3 °F 33.1 °F 70% 30.14 in 10.0 mi East 24.2 mph 28.8 mph N/A   Overcast
2:56 PM 42.1 °F 32.6 °F 33.1 °F 70% 30.12 in 10.0 mi ESE 23.0 mph 28.8 mph N/A   Overcast
3:56 PM 41.0 °F 31.4 °F 33.1 °F 73% 30.09 in 10.0 mi ESE 21.9 mph 31.1 mph N/A   Overcast
4:56 PM 42.1 °F 32.8 °F 33.1 °F 70% 30.05 in 10.0 mi ESE 21.9 mph 29.9 mph N/A   Overcast
5:56 PM 42.1 °F 32.1 °F 33.1 °F 70% 30.02 in 10.0 mi ESE 25.3 mph 32.2 mph N/A   Overcast
6:56 PM 42.1 °F 32.6 °F 33.1 °F 70% 30.00 in 10.0 mi ESE 23.0 mph 31.1 mph N/A   Overcast
7:56 PM 42.1 °F 32.3 °F 33.1 °F 70% 29.99 in 10.0 mi ESE 24.2 mph 31.1 mph N/A   Overcast
8:56 PM 42.1 °F 32.6 °F 32.0 °F 67% 29.96 in 10.0 mi East 23.0 mph 29.9 mph N/A   Overcast
9:56 PM 41.0 °F 32.5 °F 32.0 °F 70% 29.92 in 10.0 mi East 17.3 mph 27.6 mph N/A   Overcast
10:56 PM 41.0 °F 31.9 °F 32.0 °F 70% 29.89 in 10.0 mi East 19.6 mph 28.8 mph N/A   Overcast
11:56 PM 42.1 °F 32.8 °F 30.9 °F 65% 29.87 in 10.0 mi East 21.9 mph 27.6 mph N/A   Overcast